Home   Weather   Olympia   Past weeks

Flag for USA Past Weather in Olympia, Washington, USA — Yesterday and Last 2 Weeks

Now
60 °F

Clear.


Feels Like: 60 °F
Forecast: 44 / 69 °F
Wind: 6 mph from Northeast

Location: Olympia Airport

Current Time: Sep 27, 2016 at 8:38:56 PM

Latest Report: Sep 27, 2016 at 7:54 PM


Visibility: 10 mi

Pressure: 30.12 "Hg

Humidity: 52%

Dew Point: 42 °F

Location of OlympiaLocation

Past Weather in Olympia — Graph

°F

Olympia Temperature Yesterday

Maximum temperature yesterday: 81 °F (at 4:54 PM)
Minimum temperature yesterday: 50 °F (at 5:54 AM)
Average temperature yesterday: 64 °F

High & Low Weather Summary for the Past Weeks

 TemperatureHumidityPressure
High81 °F (Sep 26, 4:54 PM)100% (Sep 15, 6:54 AM)30.40 "Hg (Sep 15, 6:54 AM)
Low39 °F (Sep 13, 5:54 AM)23% (Sep 13, 3:54 PM)29.90 "Hg (Sep 17, 7:54 AM)
Average58 °F75%30.10 "Hg
* Reported Sep 12 6:54 PM — Sep 27 6:54 PM, Olympia, Weather by CustomWeather, © 2016

Note: Actual official high and low records may vary slightly from our data, if they occured in-between our weather recording intervals... More about our weather records

Advertising

Olympia Weather History for the Previous 24 Hours

Scroll right to see more
 ConditionsComfort  
Time TempWeatherWind HumidityBarometerVisibility
6:54 PM
Tue, Sep 27
63 °FSunny.8 mph52%30.12 "Hg10 mi
5:54 PM68 °FSunny.9 mph44%30.12 "Hg10 mi
4:54 PM69 °FPassing clouds.10 mph42%30.14 "Hg10 mi
3:54 PM70 °FSunny.10 mph44%30.14 "Hg10 mi
2:54 PM70 °FPassing clouds.12 mph42%30.15 "Hg10 mi
1:54 PM69 °FScattered clouds.9 mph44%30.17 "Hg10 mi
12:54 PM68 °FPartly sunny.9 mph51%30.18 "Hg10 mi
11:54 AM65 °FBroken clouds.10 mph56%30.19 "Hg10 mi
10:54 AM65 °FBroken clouds.13 mph68%30.19 "Hg10 mi
9:54 AM62 °FMostly cloudy.7 mph86%30.18 "Hg10 mi
8:54 AM60 °FLight rain. Fog.No wind93%30.17 "Hg2 mi
7:54 AM59 °FFog.No wind93%30.16 "Hg2 mi
7:02 AM59 °FMostly cloudy.No wind93%30.15 "Hg10 mi
6:54 AM59 °FOvercast.No wind93%30.15 "Hg10 mi
5:54 AM60 °FOvercast.No wind86%30.14 "Hg10 mi
4:54 AM60 °FOvercast.No wind90%30.13 "Hg10 mi
3:54 AM60 °FOvercast.No wind86%30.12 "Hg10 mi
2:54 AM57 °FMostly cloudy.3 mph93%30.11 "Hg10 mi
2:02 AM58 °FPassing clouds.No wind93%30.11 "Hg10 mi
1:54 AM58 °FPassing clouds.No wind93%30.11 "Hg10 mi
12:54 AM58 °FClear.6 mph93%30.09 "Hg10 mi
11:54 PM
Mon, Sep 26
61 °FClear.7 mph87%30.08 "Hg10 mi
10:54 PM62 °FOvercast.6 mph86%30.08 "Hg10 mi
9:54 PM62 °FPassing clouds.7 mph86%30.06 "Hg10 mi
8:54 PM65 °FClear.6 mph78%30.04 "Hg10 mi
Weather by CustomWeather, © 2016

See weather overviewHow to use our weather pages